Regional Weather Roundup
Issued by NWS

Home | Current Version | Previous Version | Text Only | Print | Product List | Glossary On
Versions: 1 2 3 4 5 6 7 8 9 10 11 12 13 14 15 16 17 18 19 20 21 22 23 24 25 26 27 28 29 30 31 32 33 34 35 36 37 38 39 40 41 42 43 44 45 46 47 48 49 50
000
ASUS44 KFWD 111103
RWRTX
NORTH TEXAS HOURLY WEATHER ROUNDUP
NATIONAL WEATHER SERVICE FORT WORTH TX
500 AM CST SUN DEC 11 2016

NOTE: "FAIR" INDICATES FEW OR NO CLOUDS BELOW 12,000 FEET WITH NO
SIGNIFICANT WEATHER AND/OR OBSTRUCTIONS TO VISIBILITY.

TXZ118-119-111200-
DALLAS/FORT WORTH METROPLEX

CITY           SKY/WX    TMP DP  RH WIND       PRES   REMARKS
DFW AIRPORT    CLOUDY    49  45  86 S20       29.96F
DALLAS LOVE    CLOUDY    50  43  77 S16       29.99F
FTW MEACHAM    CLOUDY    50  48  93 S16G22    29.95F FOG
DAL-EXECUTIVE  CLOUDY    50  44  80 S13G18    29.98F
FTW-ALLIANCE   DRIZZLE   49  47  93 S12G21    29.94F FOG
FTW-NAS-JRB    CLOUDY    51  50  96 S13       29.96F
FTW-SPINKS     CLOUDY    49  48  95 S12       29.98F FOG
ARLINGTON      CLOUDY    48  47  96 S13       29.98F FOG
GRAND PRAIRIE  CLOUDY    49  45  86 SE7G16    30.00F
MESQUITE       CLOUDY    49  39  68 S13       30.02F
LANCASTER      CLOUDY    50  40  68 S7        30.02F
$$

TXZ091>094-102>105-117-120-121-131>134-111200-
NORTH CENTRAL TEXAS

CITY           SKY/WX    TMP DP  RH WIND       PRES   REMARKS
SHRMAN/DENISON CLOUDY    49  43  79 S20G30    29.95F
GAINESVILLE    CLOUDY    47  46  94 S14G25    29.95S FOG
BOWIE          CLOUDY    50  48  95 S16       29.90S
BRIDGEPORT     CLOUDY    51  51 100 S13G21    29.95S
DECATUR        FOG       48  48  99 S14G21    29.94S VSB 3/4
DENTON         CLOUDY    48  47  96 S18       29.95F FOG
MCKINNEY       CLOUDY    49  43  80 S23G29    29.97F
BONHAM         CLOUDY    48  37  66 S21G26    29.96F
GREENVILLE     CLOUDY    50  39  66 S14G21    30.01F
ROCKWALL       CLOUDY    49  40  71 S15G23    30.00F
TERRELL        LGT RAIN  49  39  68 S8        30.02F
WAXAHACHIE     CLOUDY    49  44  84 S12G17    30.01F
CLEBURNE       FOG       50  50 100 SE12      29.98F VSB 1/2
GRANBURY       CLOUDY    53  51  92 SE10G16   29.97F
$$

TXZ083>090-098>101-113>116-127>130-139>142-154-155-111200-
WESTERN NORTH TEXAS

CITY           SKY/WX    TMP DP  RH WIND       PRES   REMARKS
WICHITA FALLS  CLOUDY    55  50  83 S22G36    29.84F
WF-KICKAPOO    CLOUDY    55  51  85 S15G28    29.87R
VERNON         CLOUDY    51  45  80 S13       29.82F
ABILENE        CLOUDY    55  51  86 S28G43    29.90F
ABILENE-DYESS  MOCLDY    55  49  81 S30       29.86F
CISCO          CLOUDY    54  52  94 S16G25    29.92F
BRECKENRIDGE   CLOUDY    58  52  81 SW22G30   29.91F
GRAHAM         CLOUDY    55  55 100 S16G22    29.89F
MINERAL WELLS  CLOUDY    50  49  96 S8        29.94F FOG
STEPHENVILLE   CLOUDY    52  50  93 S12       29.98F
COMANCHE       CLOUDY    52  52 100 S14G22    29.96F
COLEMAN        CLOUDY    55  52  88 SW20      29.96F
$$

TXZ143>147-156>162-174-175-111200-
CENTRAL TEXAS

CITY           SKY/WX    TMP DP  RH WIND       PRES   REMARKS
WACO           CLOUDY    50  49  96 S13       30.02F
WACO-MCGREGOR  CLOUDY    50  49  96 S10       30.02F FOG
HILLSBORO      CLOUDY    50  46  87 S15       30.01F
CORSICANA      CLOUDY    52  43  71 S10       30.04F
MEXIA          CLOUDY    50  42  74 SE9G18    30.02F
HEARNE         CLOUDY    53  47  82 SE8       30.07F
CAMERON        CLOUDY    54  49  84 S3        30.05F
TEMPLE         CLOUDY    50  50 100 S13       30.03F FOG
KILLEEN        CLOUDY    52  51  99 SE10      30.00F FOG
KILLEEN-SKYLRK CLOUDY    51  51 100 S10       30.02F FOG
FORT HOOD      CLOUDY    50  50 100 S7        29.99F FOG
GATESVILLE     CLOUDY    52  52 100 S8        30.02F
HAMILTON       CLOUDY    53  53 100 S15       29.99F FOG
LAMPASAS       CLOUDY    53  52  98 S7        29.99F FOG
$$

TXZ095>097-106>112-122>126-135>138-148>153-164>167-111200-
EAST TEXAS

CITY           SKY/WX    TMP DP  RH WIND       PRES   REMARKS
PARIS          CLOUDY    48  34  57 SE14      30.02F
SULPHUR SPRNGS CLOUDY    51  40  65 S12G21    30.04F
MOUNT PLEASANT CLOUDY    50  33  52 SE12      30.06F
GILMER         CLOUDY    50  38  63 SE9       30.06F
MINEOLA        CLOUDY    52  43  71 S6        30.04F
TYLER          CLOUDY    53  43  68 S16G23    30.04F
LONGVIEW       CLOUDY    51  39  63 SE13      30.07F
MARSHALL       CLOUDY    50  32  51 S6        30.11F
ATHENS         CLOUDY    52  45  76 S13G21    30.02F
PALESTINE      CLOUDY    53  46  77 SE9       30.07F
JACKSONVILLE   CLOUDY    51  44  77 S15G22    30.07F
HENDERSON      CLOUDY    51  40  66 S10       30.08F
CENTER         CLOUDY    51  35  54 SE8G16    30.12F
NACOGDOCHES    CLOUDY    50  39  66 SE12      30.08F
LUFKIN         CLOUDY    50  42  74 SE12      30.10F
$$

SUPPLEMENTAL OBSERVATIONS (CENTRAL)

CITY           SKY/WX    TMP DP  RH WIND       PRES   REMARKS
$$

SUPPLEMENTAL OBSERVATIONS (WEST)

CITY           SKY/WX    TMP DP  RH WIND       PRES   REMARKS
$$

SUPPLEMENTAL OBSERVATIONS (EAST)

CITY           SKY/WX    TMP DP  RH WIND       PRES   REMARKS
$$

SUPPLEMENTAL OBSERVATIONS ARE A COLLECTION OF AUTOMATED INSTRUMENTS
THAT ARE MAINTAINED BY A VARIETY OF FEDERAL AND STATE AGENCIES.
CERTAIN ELEMENTS...SUCH AS HUMIDITY VALUES AND SUSTAINED WIND
SPEEDS...MAY BE APPROXIMATED.




USA.gov is the U.S. government's official web portal to all federal, state and local government web resources and services.